Cape Girardeau, MO

10:25 PM CST on January 19, 2018 (GMT -0600)
Cape Girardeau Regional

Weather History for KCGI - January, 2012

Change the Weather History Date:

Thursday, January 19, 2012

  Actual Average Record
Temperature  
Mean Temperature 38 °F -  
Max Temperature 47 °F 42 °F 62 °F (1964)
Min Temperature 29 °F 24 °F -11 °F (1994)
Degree Days  
Heating Degree Days 27    
Month to date heating degree days 506  
Moisture  
Dew Point 27 °F    
Average Humidity 69    
Maximum Humidity 85    
Minimum Humidity 53    
Precipitation  
Precipitation 0.00 in 0.11 in 3.06 in (1990)
Month to date precipitation 1.56 2.11  
Year to date precipitation 1.56 2.11  
Sea Level Pressure  
Sea Level Pressure 30.03 in    
Wind  
Wind Speed 8 mph (South)    
Max Wind Speed 17 mph    
Max Gust Speed 21 mph    
Visibility 10 miles    
Events      
T = Trace of Precipitation, MM = Missing Value Source: NWS Daily Summary

Daily Weather History Graph

Daily Weather History Graph

Search for Another Location

Airport or City:

Trip Planner

Search our weather history database for the weather conditions in past years. The results will help you decide how hot, cold, wet, or windy it might be!

Date:

Astronomy

Jan. 19, 2012 Rise Set
Actual Time 7:09 AM CST 5:08 PM CST
Civil Twilight 6:41 AM CST 5:36 PM CST
Nautical Twilight 6:09 AM CST 6:08 PM CST
Astronomical Twilight 5:38 AM CST 6:39 PM CST
Moon 3:44 AM CST (1/19) 1:41 PM CST (1/19)
Length of Visible Light 10h 54m
Length of Day
9h 58m
Waning Crescent, 15% of the Moon is Illuminated
Jan 19
Waning Crescent
Jan 23
New
Jan 30
First Quarter
Feb 7
Full
Feb 14
Last Quarter

Hourly Weather History & Observations

Time (CST) Temp. Windchill Dew Point Humidity Pressure Visibility Wind Dir Wind Speed Gust Speed Precip Events Conditions
12:53 AM 30.0 °F 24.1 °F 25.0 °F 82% 30.06 in 10.0 mi South 5.8 mph - N/A   Clear
1:53 AM 30.9 °F 24.3 °F 25.0 °F 79% 30.05 in 10.0 mi South 6.9 mph - N/A   Clear
2:53 AM 32.0 °F 25.6 °F 25.0 °F 75% 30.02 in 10.0 mi South 6.9 mph - N/A   Clear
3:53 AM 32.0 °F 24.8 °F 26.1 °F 79% 29.99 in 10.0 mi SSW 8.1 mph - N/A   Clear
4:53 AM 33.1 °F 24.9 °F 26.1 °F 75% 29.99 in 10.0 mi SSW 10.4 mph - N/A   Clear
5:53 AM 32.0 °F 25.6 °F 26.1 °F 79% 30.04 in 10.0 mi SSW 6.9 mph - N/A   Clear
6:53 AM 30.9 °F 26.2 °F 27.0 °F 85% 30.03 in 10.0 mi South 4.6 mph - N/A   Clear
7:53 AM 32.0 °F 28.7 °F 27.0 °F 82% 30.03 in 10.0 mi South 3.5 mph - N/A   Clear
8:53 AM 33.1 °F 28.7 °F 28.0 °F 82% 30.05 in 10.0 mi South 4.6 mph - N/A   Clear
9:53 AM 35.1 °F 30.1 °F 28.9 °F 78% 30.07 in 10.0 mi South 5.8 mph - N/A   Clear
10:53 AM 39.0 °F 34.0 °F 28.9 °F 67% 30.04 in 10.0 mi South 6.9 mph - N/A   Clear
11:53 AM 42.1 °F 37.1 °F 30.0 °F 62% 29.97 in 10.0 mi South 8.1 mph - N/A   Clear
12:53 PM 44.6 °F 43.1 °F 30.2 °F 57% 29.97 in 10.0 mi WSW 3.5 mph - N/A   Clear
1:53 PM 46.0 °F 41.9 °F 33.1 °F 61% 29.96 in 10.0 mi WNW 8.1 mph - N/A   Clear
2:53 PM 46.0 °F 42.5 °F 32.0 °F 58% 29.97 in 10.0 mi NW 6.9 mph - N/A   Clear
3:53 PM 46.0 °F 42.5 °F 30.0 °F 54% 29.97 in 10.0 mi NNE 6.9 mph - N/A   Clear
4:53 PM 42.1 °F 37.1 °F 28.9 °F 60% 29.99 in 10.0 mi NE 8.1 mph - N/A   Clear
5:53 PM 37.0 °F 31.0 °F 28.0 °F 70% 30.03 in 10.0 mi North 8.1 mph - N/A   Clear
6:53 PM 37.0 °F 29.8 °F 27.0 °F 67% 30.05 in 10.0 mi NNE 10.4 mph - N/A   Clear
7:53 PM 33.8 °F 23.5 °F 26.6 °F 75% 30.06 in 10.0 mi NNE 16.1 mph - N/A   Clear
8:53 PM 30.2 °F 20.2 °F 24.8 °F 80% 30.07 in 10.0 mi NNE 12.7 mph - N/A   Clear
9:53 PM 30.9 °F 21.2 °F 25.0 °F 79% 30.09 in 10.0 mi NE 12.7 mph - N/A   Mostly Cloudy
10:53 PM 30.0 °F 20.0 °F 24.1 °F 79% 30.09 in 10.0 mi NE 12.7 mph - N/A   Mostly Cloudy
11:53 PM 30.0 °F 20.0 °F 23.0 °F 75% 30.09 in 10.0 mi NE 12.7 mph - N/A   Overcast